Hourly Data Report for September 24, 2017

All times are specified in Local Standard Time (LST). Add 1 hour to adjust for Daylight Saving Time where and when it is observed.

ARVIAT A
NUNAVUT

61°05'38.000" N
94°04'18.000" W
10.40 m
2300427
71174
YEK

Download Data

Hourly Data (September 2017)
Hourly Data Report for September 24, 2017
Temp Definition
°C
Dew Point Temp Definition
°C
Rel Hum Definition
%
Wind Dir Definition
10's deg

Wind Spd Definition
km/h
Visibility Definition
km
Stn Press Definition
kPa
Hmdx Definition


Wind Chill Definition


Weather Definition


TIME
00:00 Legend Double Dagger 2.9 -1.4 73 2 9 16.1 102.39     LegendNANA
01:00 Legend Double Dagger 2.7 -0.5 80 33 8 16.1 102.40     LegendNANA
02:00 Legend Double Dagger 2.4 -0.8 79   0 16.1 102.42     LegendNANA
03:00 Legend Double Dagger 2.6 -1.9 72   0 16.1 102.39     LegendNANA
04:00 Legend Double Dagger 2.4 -1.4 76   0 16.1 102.38     LegendNANA
05:00 Legend Double Dagger 2.9 -1.7 72 21 4 16.1 102.39     LegendNANA
06:00 Legend Double Dagger 2.5 -1.9 73   0 16.1 102.39     LegendNANA
07:00 Legend Double Dagger 2.3 -1.3 77 22 8 16.1 102.38     LegendNANA
08:00 Legend Double Dagger 2.7 -1.0 77 20 5 16.1 102.35     LegendNANA
09:00 Legend Double Dagger 3.2 -1.0 74 22 8 16.1 102.32     LegendNANA
10:00 Legend Double Dagger 4.0 -0.4 73 21 11 16.1 102.31     LegendNANA
11:00 Legend Double Dagger 4.2 -0.6 71 22 18 16.1 102.30     LegendNANA
12:00 Legend Double Dagger 4.7 -0.5 69 22 17 16.1 102.27     LegendNANA
13:00 Legend Double Dagger 5.5 -0.3 66 19 21 16.1 102.22     LegendNANA
14:00 Legend Double Dagger 4.4 1.3 80 22 18 16.1 102.19     Rain
15:00 Legend Double Dagger 4.4 1.1 79 17 11 16.1 102.16     LegendNANA
16:00 Legend Double Dagger 5.7 -1.8 59 26 17 16.1 102.14     LegendNANA
17:00 Legend Double Dagger 5.2 -1.6 61 31 15 16.1 102.12     LegendNANA
18:00 Legend Double Dagger 5.1 -0.7 66 34 13 16.1 102.08     LegendNANA
19:00 Legend Double Dagger 3.3 0.3 81 35 8 16.1 102.09     LegendNANA
20:00 Legend Double Dagger 2.5 -0.6 80 LegendMM 4 16.1 102.07     LegendNANA
21:00 Legend Double Dagger 1.4 -0.3 89 32 8 16.1 102.04     LegendNANA
22:00 Legend Double Dagger 3.0 -2.2 69 34 11 16.1 102.01     LegendNANA
23:00 Legend Double Dagger 2.6 -1.0 77 32 9 16.1 101.99     LegendNANA

Notes on Data Quality.

Legend

  • E = Estimated
  • M = Missing
  • NA = Not Available
  • ‡ = Partner data that is not subject to review by the National Climate Archives
Date modified: